Other Surface Observations
Issued by NWS

Home | Current Version | Previous Version | Text Only | Print | Product List | Glossary On
Versions: 1 2 3 4 5 6 7 8 9 10 11 12 13 14 15 16 17 18 19 20 21 22 23 24 25 26 27 28 29 30 31 32 33 34 35 36 37 38 39 40 41 42 43 44 45 46 47 48 49 50
000
SXUS52 KTAE 221619
OSOTAE
OSOTAE
North Florida/South Alabama/Southwest Georgia Weather Roundup
National Weather Service Tallahassee Florida
1200 PM EDT SAT JUL 22 2017

Note: "fair" indicates few or no clouds below 12,000 feet with no
significant weather and/or obstructions to visibility.

!FLZ017-115-028-034-025-221700
...North Florida...

CITY           SKY/WX    TMP DP  RH WIND       PRES   REMARKS
TALLAHASSEE    PTSUNNY   87  75  67 NW8       30.05F HX  96
APALACHICOLA   CLOUDY    83  80  91 S5        30.05F HX  95
PERRY          PTSUNNY   82  77  86 SW9       30.08S
CROSS CITY     TSTM      77  75  92 SE5       30.13R FOG
JACKSONVILLE   MOSUNNY   86  72  62 SW5       30.06F HX  92
$$

!FLZ112-006-005-002-011-221700
...Florida Panhandle...

CITY           SKY/WX    TMP DP  RH WIND       PRES   REMARKS
MARIANNA       SUNNY     88  74  63 W5        30.05F HX  96
BONIFAY        NOT AVBL
PANAMA CITY NW PTSUNNY   87  74  64 W5        30.04S HX  95
TYNDALL AFB    MOSUNNY   85  75  71 CALM      30.05F HX  94
TYND DRONE APT PTSUNNY   84  75  74 SW3       30.05F HX  92
DE FUNIAK SPR  FAIR      87  75  66 CALM      30.06S HX  96
EGLIN AFB      MOSUNNY   88  75  65 VRB3      30.04F HX  97
DESTIN         PTSUNNY   89  74  60 S6        30.04S HX  98
HURLBURT       MOSUNNY   89  78  70 VRB6      30.03S HX 102
CRESTVIEW      MOSUNNY   90  72  55 VRB3      30.06F HX  97
PENSACOLA      MOSUNNY   89  77  67 SE7       30.03F HX 101
$$

!ALZ063-066-221700
...South Alabama...

CITY           SKY/WX    TMP DP  RH WIND       PRES   REMARKS
DOTHAN         MOSUNNY   88  75  65 W7        30.09F HX  97
OZARK CAIRNS   MOSUNNY   86  75  69 CALM      30.05F HX  95
FT RUCKER HELI MOSUNNY   87  75  67 W3        30.05F HX  95
RUCKER HELI 3  FAIR      87  74  65 CALM      30.05F HX  94
RUCKER HELI 2  FAIR      85  76  74 NW3       30.04F HX  94
FLORALA APT    PTSUNNY   89  73  59 CALM      30.07F HX  97
ANDALUSIA      MOSUNNY   92  75  57 CALM      30.05F HX 103
TROY           MOSUNNY   87  73  62 W5        30.07F HX  94
EUFALA         PTSUNNY   87  76  69 CALM      30.05F HX  97
MOBILE         MOSUNNY   90  72  55 CALM      30.04F HX  97
$$

!GAZ120>161-221700
...Southwest and South Central Georgia...

CITY           SKY/WX    TMP DP  RH WIND       PRES   REMARKS
THOMASVILLE    FAIR      86  73  66 CALM      30.08F HX  93
BAINBRIDGE     MOSUNNY   90  81  74 W6        30.06F HX 108
MOODY AFB      SUNNY     87  73  63 W3        30.06F HX  93
VALDOSTA       MOSUNNY   87  74  64 VRB5      30.06F HX  95
MOULTRIE       MOSUNNY   84  73  70 W5        30.08F HX  91
BLAKELY        MOSUNNY   88  73  62 W5        30.06F HX  96
ALBANY         PTSUNNY   86  76  71 CALM      30.08F HX  96
TIFTON         FAIR      85  76  74 NW6       30.07F HX  93
FITZGERALD     PTSUNNY   87  77  72 W3        30.10S HX  98
CORDELE        PTSUNNY   89  75  62 W8        30.08F HX 100
AMERICUS       FAIR      84  70  61 W7        30.08F
HOMERVILLE     FAIR      88  75  66 W3        30.07F HX  97
$$

!GMZ750-755-770-775-221700
...Coastal and Buoy Obs...

STATION/POSITION TIME  TEMP    WIND        PRES    VSBY  WAVE
                       AIR SEA DIR/SP/G                  HT/PER
                 (UTC) (F)     (DEG/KT/KT) (MB)    (MI)  (FT/S)
KEATON BEACH     1600   80     240/ 11/ 14 1018.3F
CEDAR KEY        1600   81     250/ 18/ 25 1019.3R
C TOWER          NOT AVBL
APALACHICOLA BUO 1550   83 87  230/  6/  8 1018.3S         1/ 3
PANAMA CITY BUOY 1550   82 85  200/ 10/ 14 1017.9F         1/ 8
MOBILE BUOY      1600   84 85  190/  4/  6 1018.0
ORANGE BCH AL BU 1550   84 88   CALM  /  2 1016.9F         1
$$




USA.gov is the U.S. government's official web portal to all federal, state and local government web resources and services.